sat.trackr.live / text

‹ back to catalog

STARLINK-4557

NORAD 53432 · 2022-097AW

PAYLOAD ACTIVE UNKNOWN

§ Identity

Operator
Country
US
Launch date
2022-08-10
Launch site
AFETR
Launch vehicle
Mass (kg)
RCS (m²)

Purposes: comms

External: N2YO · Heavens-Above · Gunter

§ Orbital elements

Epoch: 2026-09-19T16:00:09.727200Z

Period
93.85 min
Inclination
53.1580°
Eccentricity
0.0001254
Mean motion
15.34390154 rev/d
Perigee alt
461.9 km
Apogee alt
463.6 km
Semi-major
6,840.9 km
B*
1.7391e-5
RAAN
297.5253°
Arg perigee
82.8328°
Mean anomaly
277.2817°
Rev number
22,828

§ Raw data

STARLINK-45571 53432U 22097AW  26262.66677925  .00000211  00000+0  17391-4 0  99912 53432  53.1580 297.5253 0001254  82.8328 277.2817 15.34390154228288

JSON: /api/v1/satellites/53432 · /tle

For live sub-satellite position, see the globe view (requires WebGL).

§ Visibility from observer

Set your observer location to see the next 7 days of passes ≥ 10°. The values pass through the URL so the page stays shareable.

No JS? Fill the form by hand. The geolocation button needs JavaScript.